Regional Weather Roundup
Issued by NWS

Home | Current Version | Previous Version | Graphics & Text | Print | Product List | Glossary On
Versions: 1 2 3 4 5 6 7 8 9 10 11 12 13 14 15 16 17 18 19 20 21 22 23 24 25 26 27 28 29 30 31 32 33 34 35 36 37 38 39 40 41 42 43 44 45 46 47 48 49 50
000
ASUS43 KLOT 160003
RWRIL

ILLINOIS REGIONAL WEATHER ROUNDUP
NATIONAL WEATHER SERVICE CHICAGO/ROMEOVILLE IL
600 PM CST FRI DEC 15 2017

NOTE: "FAIR" INDICATES FEW OR NO CLOUDS BELOW 12,000 FEET WITH NO
SIGNIFICANT WEATHER AND/OR OBSTRUCTIONS TO VISIBILITY.

* THESE STATIONS ARE NOT UNDER NWS QUALITY CONTROL. THEY ALSO MAY NOT
  REPORT WEATHER SUCH AS PRECIPITATION OR FOG.

ILZ001-002-007-009-015-016-024-160100-
NORTHWEST ILLINOIS

CITY           SKY/WX    TMP DP  RH WIND       PRES   REMARKS
MOLINE         CLEAR     36  22  56 S9        29.89  WCI  29
6HR MIN TEMP:  33; 6HR MAX TEMP:  39;

STERLING*      CLOUDY    34  24  67 SW3       29.91R
$$

ILZ003-004-008-010-011-017-018-160100-
NORTH CENTRAL ILLINOIS

CITY           SKY/WX    TMP DP  RH WIND       PRES   REMARKS
ROCKFORD       CLOUDY    32  24  72 SW7       29.90S WCI  26
6HR MIN TEMP:  29; 6HR MAX TEMP:  32; 6HR PCP: TRACE;

FREEPORT*      CLOUDY    32  26  78 SW9       29.89S WCI  24
DE KALB*       MIX PCPN  32  24  70 SW8       29.89S WCI  25
$$

ILZ005-006-012>014-019>023-160100-
NORTHEAST ILLINOIS

CITY           SKY/WX    TMP DP  RH WIND       PRES   REMARKS
CHICAGO-OHARE  CLOUDY    33  22  63 SW10      29.90R WCI  25
6HR MIN TEMP:  31; 6HR MAX TEMP:  34; 6HR PCP: TRACE;

CHICAGO-MIDWAY FLURRIES  34  21  59 SW12      29.92R WCI  25
6HR MIN TEMP:  32; 6HR MAX TEMP:  34; 6HR PCP: TRACE;

AURORA         CLOUDY    34  22  61 SW10      29.91S WCI  26
6HR MIN TEMP:  31; 6HR MAX TEMP:  34; 6HR PCP: TRACE;

LANSING*       CLOUDY    33  22  65 SW9       29.94R WCI  25
JOLIET*        CLOUDY    35  22  58 SW9       29.94R WCI  28
WAUKEGAN       CLOUDY    31  24  75 VRB6      29.88R WCI  25
6HR MIN TEMP:  30; 6HR MAX TEMP:  31;

DUPAGE AIRPORT CLOUDY    32  23  69 SW10      29.90R WCI  24
6HR MIN TEMP:  30; 6HR MAX TEMP:  32; 6HR PCP: TRACE;

WHEELING       CLOUDY    34  24  67 SW9       29.92R WCI  27
6HR MIN TEMP:  31; 6HR MAX TEMP:  34;

NORTHERLY ISL    N/A     34  20  57 W9          N/A  WCI  27
$$

LMZ740>746-160100-
SOUTHERN LAKE MICHIGAN

STATION/POSITION SKY/WX   TEMP    WIND        PRES    VSBY  WAVE
                          AIR SEA DIR/SP/G                  HT/PER
                          (F)     (DEG/KT/KT) (MB)    (MI)  (FT/S)
HARRISON CRIB              35     240/ 14/ 18   N/A
BURNHAM HARBOR             34     210/  4/ 11   N/A
CALUMET HARBOR             33     210/  7/ 10 1012.4F
BURNS HARBOR               33     220/ 10/ 16 1013.9S
MICHIGAN CITY              32     210/ 17/ 19   N/A
$$

ILZ025>027-034>036-040-047-049-050-058-095>099-160100-
WEST-CENTRAL ILLINOIS

CITY           SKY/WX    TMP DP  RH WIND       PRES   REMARKS
QUINCY         CLEAR     36  20  52 SW10      29.98S WCI  28
GALESBURG*     CLEAR     31  23  71 SW8       29.94S WCI  23
MACOMB*        CLEAR     35  21  56 SW9       29.98R WCI  28
$$

ILZ028>032-037-038-041>044-048-051>054-059>061-160100-
CENTRAL ILLINOIS

CITY           SKY/WX    TMP DP  RH WIND       PRES   REMARKS
BLOOMINGTON    CLOUDY    34  20  56 SW10      29.98S WCI  26
DECATUR        CLOUDY    35  21  56 SW8       30.02R WCI  29
PEORIA         CLEAR     33  21  61 S8        29.97S WCI  26
6HR MIN TEMP:  32; 6HR MAX TEMP:  37;

LACON*         CLOUDY    35  22  59 SW6       29.95R WCI  30
LINCOLN*       CLOUDY    37  23  57 SW6       30.00S WCI  32
SPRINGFIELD    CLEAR     36  21  54 SW7       30.01S WCI  30
6HR MIN TEMP:  36; 6HR MAX TEMP:  41;

TAYLORVILLE    NOT AVBL
$$

ILZ033-039-045-046-055>057-062-063-160100-
EAST-CENTRAL ILLINOIS

CITY           SKY/WX    TMP DP  RH WIND       PRES   REMARKS
CHAMPAIGN      CLOUDY    34  20  56 SW9       30.01S WCI  27
DANVILLE*      CLOUDY    33  19  58 SW10      29.98S WCI  24
MATTOON        CLOUDY    34  23  64 S5        30.03S WCI  30
$$

ILZ079-100>102-160100-
SOUTHWEST ILLINOIS

CITY           SKY/WX    TMP DP  RH WIND       PRES   REMARKS
ALTON          CLEAR     36  21  55 SW6       30.06S WCI  31
BELLEVILLE     CLEAR     33  21  60 S6        30.07R WCI  28
CAHOKIA*       CLEAR     38  19  46 SW5       30.07S WCI  34
SPARTA*        CLEAR     38  26  61 CALM      30.09S
$$

ILZ064>066-069>071-074>076-080>082-084>086-088>090-092>094-160100-
SOUTH-CENTRAL ILLINOIS

CITY           SKY/WX    TMP DP  RH WIND       PRES   REMARKS
CARBONDALE     MOCLDY    37  27  67 SE6       30.11R WCI  32
6HR MIN TEMP:  36; 6HR MAX TEMP:  44;

CAIRO*         PTCLDY    40  29  64 S5        30.12R
EFFINGHAM*     CLOUDY    35  24  63 S8        30.07S WCI  29
MARION         CLOUDY    39  28  65 CALM      30.11S
MT. VERNON     CLEAR     34  24  67 CALM      30.10R
CENTRALIA*     CLEAR     31  25  78 S6        30.08S WCI  26
SALEM*         CLEAR     35  23  62 S3        30.08R
METROPOLIS*    MOCLDY    40  28  60 S5        30.12R
$$

ILZ067-068-072-073-078-083-087-091-160100-
SOUTHEAST ILLINOIS

CITY           SKY/WX    TMP DP  RH WIND       PRES   REMARKS
LAWRENCEVILLE  CLEAR     29  23  78 SW6       30.10R WCI  23
FLORA*         CLEAR     32  24  73 SW7       30.10R WCI  26
HARRISBURG*    CLOUDY    39  29  66 CALM      30.12R
ROBINSON*      CLOUDY    31  25  78 S8        30.08F WCI  24
CARMI*         CLOUDY    38  28  67 CALM      30.11R
$$

ABBREVIATIONS USED IN REMARKS
   TC - TEMPERATURE IN CELSIUS
  WCI - WIND CHILL INDEX
   HX - HEAT INDEX
  VSB - VISIBILITY
$$





USA.gov is the U.S. government's official web portal to all federal, state and local government web resources and services.